CAPE
0 0 0 0 0 0 0 0 0 0 0 0 0 0 0 0 0 0 0 0 0 2 5 7 11 19 26 37 42 50 60 72 80 79 92 117 167 176
0 0 0 0 0 0 0 0 0 0 0 0 0 0 0 0 0 0 0 0 1 1 6 16 24 28 32 31 39 47 49 47 61 67 91 144 122 113
0 0 0 0 0 0 0 0 0 0 0 0 0 0 0 0 0 0 0 0 0 2 14 27 17 19 21 23 27 24 36 46 57 73 69 77 127 85
0 0 0 0 0 0 0 0 0 0 0 0 0 0 0 0 0 0 0 0 0 1 5 6 9 14 16 18 27 31 20 24 24 43 51 78 72 120
0 0 0 0 0 0 0 0 0 0 2 0 0 0 0 0 0 0 0 0 0 0 0 1 1 6 10 12 18 21 13 15 26 47 59 65 70 84
0 0 0 0 0 0 0 0 1 1 0 0 0 0 0 0 1 0 0 0 0 0 0 0 1 1 3 6 10 10 7 7 16 51 53 47 46 54
0 0 0 0 0 0 0 2 1 1 0 0 0 0 1 1 0 0 1 1 0 0 0 0 0 0 1 2 3 2 3 5 24 38 45 43 34 34
0 0 0 0 0 0 0 3 0 2 0 0 1 3 3 2 1 5 3 2 3 0 5 0 0 1 2 1 0 3 7 25 31 17 11 13 20 28
0 0 0 0 0 1 2 0 0 0 0 1 6 7 4 1 6 5 5 8 6 2 5 2 1 1 1 0 0 0 4 6 6 6 11 14 16 18
0 0 0 0 0 3 1 0 1 0 0 3 6 4 2 4 4 4 6 8 3 3 4 6 2 0 0 0 0 0 1 2 4 11 16 19 18 17
0 0 0 1 3 1 1 1 0 0 2 0 0 0 1 1 5 8 8 8 4 2 2 6 4 2 0 0 0 0 0 2 3 9 10 14 17 16
0 0 0 0 2 2 0 0 1 3 5 0 0 0 0 0 2 1 1 4 3 6 2 15 5 5 4 0 0 1 2 3 6 3 8 10 8 16
0 0 0 1 0 0 1 0 4 6 0 0 1 1 2 3 7 6 2 7 10 6 5 13 10 7 11 12 0 1 3 7 5 7 8 11 13 21
0 0 0 0 0 0 0 2 2 0 3 3 2 2 4 6 7 6 5 3 4 6 5 4 16 10 17 21 14 2 8 7 11 14 10 3 9 8
0 0 0 0 0 0 0 0 0 2 3 4 3 4 5 3 3 4 6 5 6 5 1 4 12 14 22 16 9 8 17 8 22 27 20 17 14 13
0 0 0 0 0 0 0 0 0 2 4 3 2 5 5 5 5 5 2 6 8 5 5 7 9 4 7 7 4 6 25 31 28 15 21 26 35 8
0 0 0 0 0 0 0 0 1 2 2 1 0 3 4 5 6 4 4 3 4 7 7 15 17 17 20 24 3 17 25 26 24 14 24 13 19 16
0 0 0 0 0 1 1 2 3 4 4 3 3 2 2 2 3 6 5 4 9 8 13 13 5 15 15 16 4 15 22 20 18 18 20 19 14 13
0 0 0 1 3 3 4 4 5 4 4 3 3 1 2 4 4 4 5 5 8 13 15 18 8 8 8 13 16 3 30 17 15 15 14 13 12 14
0 0 2 4 3 5 4 2 4 3 4 2 3 3 2 3 3 5 5 4 18 19 8 19 14 10 8 8 9 1 0 4 10 11 14 5 5 1
0 2 2 3 1 2 1 1 2 4 2 5 4 3 3 2 3 5 3 5 7 6 6 6 11 7 3 2 5 4 0 0 0 4 15 18 8 7
1 2 2 3 1 1 2 2 2 5 4 4 4 3 4 2 2 3 3 2 3 6 6 13 14 5 5 5 4 4 1 0 0 0 0 1 19 12
3 3 1 1 2 2 3 3 3 4 3 3 4 4 3 3 4 6 4 4 8 4 3 4 8 2 3 3 2 3 0 1 2 1 4 0 0 0
CIN
-0 -0 -0 -0 -0 -0 -0 -0 -0 -0 -0 -0 -0 -0 -0 -0 -0 -0 -0 -0 -0 -0 -0 -0 -0 -0 -0 -0 -0 -0 -0 -0 -0 -0 -0 -0 -0 -0
-0 -0 -0 -0 -0 -0 -0 -0 -0 -0 -0 -0 -0 -0 -0 -0 -0 -0 -0 -0 -0 -0 -0 -0 -0 -0 -0 -0 -0 -0 -0 -0 -0 -0 -0 -0 -0 -0
-0 -0 -0 -0 -0 -0 -0 -0 -0 -0 -0 -0 -0 -0 -0 -0 -0 -0 -0 -0 -0 -0 -0 -0 -0 -0 -0 -0 -0 -0 -0 -0 -0 -0 -0 -0 -0 -0
-0 -0 -0 -0 -0 -0 -0 -0 -0 -0 -0 -0 -0 -0 -0 -0 -0 -0 -0 -0 -0 -0 -0 -0 -0 -0 -0 -0 -0 -0 -0 -0 -0 -0 -0 -0 -0 -0
-0 -0 -0 -0 -0 -0 -0 -0 -0 -0 -0 -0 -0 -0 -0 -0 -0 -0 -0 -0 -0 -0 -0 -0 -0 -0 -0 -0 -0 -0 -0 -0 -0 -0 -0 -0 -0 -0
-0 -0 -0 -0 -0 -0 -0 -0 -0 -0 -0 -0 -0 -0 -0 -0 -0 -0 -0 -0 -0 -0 -0 -0 -0 -0 -0 -0 -0 -0 -0 -0 -0 -0 -0 -0 -0 -0
-0 -0 -0 -0 -0 -0 -0 -0 -0 -0 -0 -0 -0 -0 -0 -0 -0 -0 -0 -0 -0 -0 -0 -0 -0 -0 -0 -0 -0 -0 -0 -0 -0 -0 -0 -0 -0 -0
-0 -0 -0 -0 -0 -0 -0 -0 -0 -0 -0 -0 -0 -0 -0 -0 -0 -0 -0 -0 -0 -0 -0 -0 -0 -0 -0 -0 -0 -0 -0 -0 -0 -0 -0 -1 -0 -0
-0 -0 -0 -0 -0 -0 -1 -0 -0 -0 -0 -0 -0 -0 -0 -0 -0 -0 -0 -0 -0 -0 -0 -0 -0 -0 -0 -0 -0 -0 -0 -0 -0 -0 -0 -0 -0 -0
-0 -0 -0 -0 -0 -0 -0 -0 -0 -0 -0 -0 -0 -0 -0 -0 -0 -0 -0 -0 -0 -0 -0 -0 -0 -0 -0 -0 -0 -0 -0 -0 -0 -0 -0 -0 -0 -0
-0 -0 -0 -0 -0 -0 -0 -0 -0 -0 -0 -0 -0 -0 -0 -0 -0 -0 -0 -0 -0 -0 -0 -0 -0 -0 -0 -0 -0 -0 -0 -0 -0 -0 -0 -0 -0 -0
-0 -0 -0 -0 -0 -0 -0 -0 -0 -0 -0 -0 -0 -0 -0 -0 -0 -0 -0 -0 -0 -0 -0 -0 -0 -0 -0 -0 -0 -0 -0 -0 -0 -0 -0 -0 -0 -0
-0 -0 -0 -0 -0 -0 -0 -0 -0 -0 -0 -0 -0 -0 -0 -0 -0 -0 -0 -0 -0 -0 -0 -0 -0 -0 -0 -0 -0 -0 -0 -0 -0 -0 -0 -0 -0 -0
-0 -0 -0 -0 -0 -0 -0 -0 -0 -0 -0 -0 -0 -0 -0 -0 -0 -0 -0 -0 -0 -0 -0 -0 -0 -0 -0 -0 -0 -0 -0 -0 -0 -0 -0 -0 -0 -0
-0 -0 -0 -0 -0 -0 -0 -0 -0 -0 -0 -0 -0 -0 -0 -0 -0 -0 -0 -0 -0 -0 -0 -0 -0 -0 -0 -0 -0 -0 -0 -0 -0 -0 -0 -0 -0 -0
-0 -0 -0 -0 -0 -0 -0 -0 -0 -0 -0 -0 -0 -0 -0 -0 -0 -0 -0 -0 -0 -0 -0 -0 -0 -0 -0 -0 -0 -0 -0 -0 -0 -0 -0 -0 -0 -0
-0 -0 -0 -0 -0 -0 -0 -0 -0 -0 -0 -0 -0 -0 -0 -0 -0 -0 -0 -0 -0 -0 -0 -0 -0 -0 -0 -0 -0 -0 -0 -0 -0 -0 -0 -0 -0 -0
-0 -0 -0 -0 -0 -0 -0 -0 -0 -0 -0 -0 -0 -0 -0 -0 -0 -0 -0 -0 -0 -0 -0 -0 -0 -0 -0 -0 -4 -0 -0 -0 -0 -0 -0 -0 -0 -0
-0 -0 -0 -0 -0 -0 -0 -0 -0 -0 -0 -0 -0 -0 -0 -0 -0 -0 -0 -0 -0 -0 -0 -0 -0 -0 -0 -0 -0 -0 -0 -0 -0 -0 -0 -0 -0 -0
-0 -0 -0 -0 -0 -0 -0 -0 -0 -0 -0 -0 -0 -0 -0 -0 -0 -0 -0 -0 -0 -0 -0 -0 -0 -0 -0 -0 -0 -0 -0 -0 -0 -0 -0 -0 -0 -0
-0 -0 -0 -0 -0 -0 -0 -0 -0 -0 -0 -0 -0 -0 -0 -0 -0 -0 -0 -0 -0 -0 -0 -0 -0 -0 -0 -0 -0 -0 -0 -0 -0 -0 -0 -0 -0 -0
-0 -0 -0 -0 -0 -0 -0 -0 -0 -0 -0 -0 -0 -0 -0 -0 -0 -0 -0 -0 -0 -0 -0 -0 -0 -0 -0 -0 -0 -0 -0 -0 -0 -0 -0 -0 -0 -0
-0 -0 -0 -0 -0 -0 -0 -0 -0 -0 -0 -0 -0 -0 -0 -0 -0 -0 -0 -0 -0 -0 -0 -0 -0 -0 -0 -0 -0 -0 -0 -0 -0 -0 -0 -0 -0 -0
Wind_Speed
7 6 5 6 4 4 3 3 2 4 5 1 3 5 8 8 10 12 12 17 20 19 19 21 21 22 22 23 23 24 24 24 25 25 25 25 25 23
5 6 5 4 4 3 2 2 1 3 4 1 6 9 9 8 10 12 13 16 16 18 19 19 20 21 22 23 24 25 24 24 25 26 24 23 19 16
7 6 5 4 4 3 3 3 1 3 5 6 5 7 10 10 10 10 10 11 10 18 17 20 22 21 21 23 23 22 23 25 24 25 25 22 21 18
7 6 6 4 5 4 3 3 2 3 4 7 7 7 8 9 11 11 9 10 11 14 20 19 19 20 22 22 22 21 21 21 22 22 22 22 17 20
7 6 6 5 4 3 3 2 2 3 4 6 7 6 7 7 10 10 10 10 9 16 17 18 20 23 22 20 19 17 19 22 21 22 21 19 18 18
8 7 6 5 4 4 2 2 4 5 5 5 6 7 6 7 7 9 9 9 11 11 12 16 22 20 19 18 17 16 19 22 23 20 19 16 15 15
7 7 6 6 5 4 2 3 3 5 6 6 6 6 6 8 9 9 10 10 11 9 10 12 11 10 10 13 13 17 21 20 20 17 19 16 14 14
7 6 5 3 2 1 3 3 3 5 6 7 6 8 8 8 8 9 10 12 9 8 12 12 10 10 9 9 17 18 17 17 17 17 19 20 19 17
6 4 2 1 2 2 1 2 3 4 5 6 7 9 10 10 9 10 10 11 12 11 11 12 10 11 10 10 13 14 16 18 18 18 19 19 18 19
4 2 1 1 1 5 5 5 6 5 4 5 6 9 9 10 9 9 10 11 11 9 9 9 10 11 11 9 11 13 17 16 16 18 18 18 18 18
5 1 1 1 5 8 6 5 6 5 4 6 9 9 10 10 9 7 7 8 9 10 7 8 8 12 11 7 7 15 15 16 18 19 17 16 16 17
5 4 2 5 9 7 7 5 5 7 7 8 7 6 6 6 6 5 6 7 8 6 5 7 9 7 6 5 11 9 9 15 18 15 15 15 14 9
2 0 2 9 9 7 6 4 7 8 7 6 5 5 5 6 6 6 7 6 7 8 10 6 6 8 5 9 9 10 9 10 8 10 15 15 14 12
2 2 4 6 6 6 5 7 8 6 4 5 5 6 7 7 8 8 10 9 8 11 13 11 6 8 8 9 10 9 10 10 7 7 7 11 14 13
2 4 5 5 5 2 6 6 4 3 4 5 5 6 7 7 9 9 9 10 10 10 7 9 7 9 8 8 8 10 10 7 6 8 8 7 6 6
3 4 5 4 2 3 3 2 3 3 4 5 5 6 6 6 7 7 7 8 9 7 7 8 9 9 9 8 8 8 7 6 8 8 8 8 5 5
2 2 2 2 2 3 3 3 3 3 4 4 5 6 7 7 7 7 6 7 7 8 8 7 9 9 9 10 8 7 7 7 7 8 9 7 6 5
1 2 2 3 3 3 4 4 4 4 4 5 5 6 7 7 8 8 7 7 7 7 7 7 9 8 7 6 8 7 7 7 7 8 8 8 6 6
2 1 2 3 3 4 4 4 5 5 6 5 6 6 6 6 9 7 7 7 7 7 7 7 6 7 8 9 6 2 7 8 7 7 7 7 7 7
1 2 3 3 3 4 4 5 5 5 6 6 6 6 6 6 7 7 7 7 7 8 7 6 6 6 7 7 8 8 9 7 7 7 7 6 6 7
2 3 3 3 4 4 4 5 5 6 6 6 6 6 7 6 7 7 7 11 11 7 7 7 7 14 6 6 5 6 6 9 8 7 8 6 5 4
3 4 3 4 4 4 4 5 5 6 6 6 6 7 7 6 7 7 7 7 7 7 7 7 7 6 5 4 7 9 7 7 8 7 4 8 5 5
4 4 4 4 4 4 5 5 6 6 6 6 6 7 7 7 6 6 6 7 6 7 7 7 6 5 6 4 7 7 8 8 7 6 4 9 8 9
Wind_Direction
88 96 96 77 78 62 48 17 326 301 315 18 324 348 334 328 335 330 330 339 327 329 328 330 325 327 328 324 319 319 320 322 318 316 313 309 307 308
108 92 97 103 91 84 86 72 350 304 281 317 308 325 322 319 331 329 333 322 329 328 327 320 329 328 326 326 324 322 322 320 318 314 316 314 319 321
104 94 84 84 94 81 79 70 22 304 282 308 303 314 318 328 327 330 327 329 321 321 318 322 322 321 329 326 323 323 324 322 321 318 315 318 313 315
116 118 114 114 96 76 66 41 330 284 302 308 313 326 326 314 333 326 329 325 321 322 323 318 324 321 328 321 320 319 328 321 314 309 308 311 311 316
121 117 111 93 85 65 52 12 325 293 304 307 315 321 328 335 332 329 328 322 326 328 323 329 330 320 316 317 315 324 322 325 319 311 306 314 312 311
116 107 93 80 52 32 43 21 350 328 313 320 326 321 328 338 322 328 328 335 330 332 336 327 320 318 317 315 312 314 319 322 316 317 315 316 313 316
104 103 99 68 37 25 351 1 351 331 325 328 323 321 327 337 336 334 330 331 339 341 332 323 322 320 317 315 313 323 318 313 312 334 337 328 329 329
117 115 106 80 68 47 6 329 2 334 324 321 322 320 323 332 338 333 328 339 330 334 329 317 318 315 319 321 324 322 317 327 331 325 326 323 323 322
103 94 123 114 281 290 122 339 340 315 314 309 317 313 322 335 322 326 329 320 311 318 311 310 307 318 324 320 322 326 329 328 322 315 312 309 312 310
96 120 188 123 101 333 347 332 308 325 336 325 323 320 317 315 323 323 313 301 305 305 321 295 321 318 322 315 317 324 322 324 322 320 316 315 312 306
110 229 270 205 21 13 325 334 321 339 352 319 314 307 317 329 330 318 313 318 311 315 310 323 316 321 318 309 327 326 323 320 321 321 320 318 317 315
150 212 57 18 25 4 350 330 335 345 335 325 329 337 341 339 322 314 306 298 309 302 342 325 317 338 312 311 330 323 323 325 325 327 330 326 319 313
125 273 38 21 15 1 341 339 339 338 329 332 333 335 330 325 326 320 306 291 293 284 297 323 305 308 291 305 318 314 330 330 332 334 340 330 323 319
58 30 35 14 2 2 342 348 346 328 340 337 338 337 340 326 324 319 311 306 294 285 291 296 280 294 295 299 303 321 328 325 341 333 325 327 330 328
56 60 23 17 3 350 10 353 324 355 347 335 334 328 318 316 314 312 317 313 305 299 297 297 287 291 287 289 293 306 316 318 335 339 334 322 320 329
89 40 18 1 3 340 331 353 357 354 337 325 312 312 309 321 321 324 316 321 320 317 319 313 308 309 298 289 297 298 302 321 327 331 325 317 317 338
28 347 338 347 349 359 355 348 342 331 326 309 304 312 316 319 329 326 320 317 318 320 324 325 328 309 288 279 293 297 312 320 329 325 321 322 316 331
281 323 349 351 347 342 338 336 331 322 318 311 307 312 314 314 317 330 326 324 319 320 322 327 329 326 320 304 224 298 323 328 324 321 321 323 323 338
285 346 336 340 334 325 319 312 305 310 315 311 309 307 310 309 320 316 327 321 316 312 324 326 326 328 328 330 329 290 323 324 320 319 327 326 321 331
312 304 307 310 309 306 305 302 305 309 311 307 309 311 310 312 318 318 322 318 314 326 325 318 323 331 318 315 315 310 318 320 327 322 324 324 309 299
271 277 279 291 289 291 299 299 300 299 302 309 306 308 305 313 312 318 314 319 324 323 321 323 326 324 301 284 285 318 329 332 332 314 329 323 325 319
279 273 270 274 280 283 299 301 298 299 303 306 310 308 305 312 311 316 318 316 321 319 310 314 321 331 325 327 321 320 325 338 330 333 340 357 345 343
282 275 279 281 280 283 295 296 293 294 299 301 303 301 305 305 309 309 310 312 311 315 323 322 332 336 323 315 314 316 317 328 341 340 347 7 355 346